Location: Vancouver
(49.2500°N, 123.1330°W)
Time: 14:29:09
(UTC-07:00)

AO-27 - Visible Passes

Search period start: 16 September 2014 00:00
Search period end: 26 September 2014 00:00
Orbit: 786 x 799 km, 98.7° (Epoch: 15 September)

Date Brightness Start Highest point End Pass type
(mag) Time Alt. Az. Time Alt. Az. Time Alt. Az.
16 Sep 9.8 02:21:59 10° NE 02:24:59 18° E 02:24:59 18° E visible
16 Sep 7.5 04:00:26 10° N 04:05:38 71° WNW 04:05:46 71° W visible
16 Sep 9.6 05:41:46 10° NNW 05:44:17 14° NW 05:46:32 11° WNW visible
17 Sep 7.9 03:31:37 10° NNE 03:36:30 67° ENE 03:36:30 67° ENE visible
17 Sep 9.0 05:12:00 10° N 05:15:53 22° WNW 05:17:17 19° W visible
18 Sep 8.8 03:03:00 10° NNE 03:07:15 38° E 03:07:15 38° E visible
18 Sep 8.4 04:42:42 10° N 04:47:22 34° WNW 04:48:01 33° W visible
19 Sep 9.6 02:34:43 10° NE 02:38:00 23° ENE 02:38:00 23° ENE visible
19 Sep 7.8 04:13:38 10° N 04:18:44 56° WNW 04:18:46 56° WNW visible
19 Sep 9.7 05:55:48 10° NNW 05:57:12 11° NW 05:58:35 10° WNW visible
20 Sep 10.2 02:07:08 10° ENE 02:08:45 13° ENE 02:08:45 13° ENE visible
20 Sep 7.7 03:44:44 10° NNE 03:49:31 75° NNE 03:49:31 75° NNE visible
20 Sep 9.3 05:25:29 10° NNW 05:28:51 18° NW 05:30:17 16° WNW visible
21 Sep 8.5 03:16:02 10° NNE 03:20:16 46° ENE 03:20:16 46° ENE visible
21 Sep 8.7 04:56:02 10° N 05:00:24 28° WNW 05:01:02 27° WNW visible
22 Sep 9.4 02:47:34 10° NNE 02:51:00 27° ENE 02:51:00 27° ENE visible
22 Sep 8.1 04:26:52 10° N 04:31:46 45° WNW 04:31:46 45° WNW visible
23 Sep 10.0 02:19:34 10° NE 02:21:45 16° ENE 02:21:45 16° ENE visible
23 Sep 7.8 03:57:54 10° NNE 04:02:31 66° NNW 04:02:31 66° NNW visible
23 Sep 9.5 05:39:06 10° NNW 05:41:48 14° NW 05:43:17 13° WNW visible
24 Sep 8.3 03:29:06 10° NNE 03:33:16 52° NE 03:33:16 52° NE visible
24 Sep 8.9 05:09:25 10° N 05:13:24 23° WNW 05:14:02 22° WNW visible
25 Sep 9.2 03:00:31 10° NNE 03:04:00 32° ENE 03:04:00 32° ENE visible
25 Sep 8.4 04:40:08 10° N 04:44:46 36° WNW 04:44:46 36° WNW visible
